Weather History for KLBF - December, 2014

Change the Weather History Date:

Friday, December 26, 2014

  Actual Average Record
Temperature  
Mean Temperature 22 °F 24 °F  
Max Temperature 26 °F 38 °F 66 °F (2005)
Min Temperature 17 °F 11 °F -25 °F (1876)
Degree Days  
Heating Degree Days 43 41  
Month to date heating degree days 865 1027  
Since 1 July heating degree days 2385 2578  
Cooling Degree Days 0 0  
Month to date cooling degree days 0 0  
Year to date cooling degree days 744 768  
Moisture  
Dew Point 18 °F    
Average Humidity 83    
Maximum Humidity 88    
Minimum Humidity 77    
Precipitation  
Precipitation 0.22 in 0.02 in 0.27 in (1883)
Month to date precipitation 0.94 0.35  
Year to date precipitation 21.42 20.17  
Snow  
Snow 4.70 in 0.10 in 4.80 in (1886)
Month to date snowfall 7.1 3.8  
Since 1 July snowfall 7.5 10.0  
Snow Depth 5.00 in    
Sea Level Pressure  
Sea Level Pressure 30.06 in    
Wind  
Wind Speed 12 mph (North)    
Max Wind Speed 23 mph    
Max Gust Speed 28 mph    
Visibility 4 miles    
Events Fog , Rain , Snow    
T = Trace of Precipitation, MM = Missing Value Source: NWS Daily Summary

Daily Weather History Graph

Daily Weather History Graph

Search for Another Location

Airport or City:

Trip Planner

Search our weather history database for the weather conditions in past years. The results will help you decide how hot, cold, wet, or windy it might be!

Date:

Astronomy

Dec. 26, 2014 Rise Set
Actual Time 8:06 AM CST 5:20 PM CST
Civil Twilight 7:35 AM CST 5:51 PM CST
Nautical Twilight 7:00 AM CST 6:26 PM CST
Astronomical Twilight 6:27 AM CST 6:59 PM CST
Moon 11:16 AM CST (12/26) 11:07 PM CST (12/26)
Length of Visible Light 10h 15m
Length of Day
9h 13m
Waxing Crescent, 28% of the Moon is Illuminated
Dec 26
Waxing Crescent
Dec 28
First Quarter
Jan 4
Full
Jan 13
Last Quarter
Jan 20
New

Hourly Weather History & Observations

Time (CST) Temp. Windchill Dew Point Humidity Pressure Visibility Wind Dir Wind Speed Gust Speed Precip Events Conditions
12:14 AM 26.1 °F 14.5 °F 23.0 °F 88% 29.89 in 5.0 mi North 13.8 mph - 0.00 in Rain Light Freezing Rain
12:39 AM 26.1 °F 14.0 °F 23.0 °F 88% 29.88 in 5.0 mi North 15.0 mph 25.3 mph 0.00 in Rain Light Freezing Rain
12:53 AM 26.1 °F 15.6 °F 23.0 °F 88% 29.94 in 5.0 mi North 11.5 mph 25.3 mph 0.00 in Rain Light Freezing Rain
1:39 AM 25.0 °F 10.9 °F 21.0 °F 85% 29.90 in 10.0 mi NNE 19.6 mph 27.6 mph 0.00 in   Overcast
1:53 AM 25.0 °F 11.3 °F 21.0 °F 85% 29.96 in 10.0 mi North 18.4 mph 25.3 mph 0.00 in   Overcast
2:07 AM 25.0 °F 11.7 °F 21.0 °F 85% 29.91 in 9.0 mi North 17.3 mph - N/A   Overcast
2:24 AM 25.0 °F 11.7 °F 21.0 °F 85% 29.93 in 10.0 mi North 17.3 mph - N/A   Overcast
2:48 AM 24.8 °F 13.4 °F 21.2 °F 86% 29.93 in 10.0 mi NNE 12.7 mph - N/A   Overcast
2:53 AM 25.0 °F 11.7 °F 21.0 °F 85% 30.01 in 10.0 mi North 17.3 mph - N/A   Overcast
3:34 AM 25.0 °F 11.3 °F 21.0 °F 85% 29.93 in 9.0 mi North 18.4 mph 24.2 mph N/A   Overcast
3:43 AM 25.0 °F 12.6 °F 21.0 °F 85% 29.94 in 10.0 mi North 15.0 mph 24.2 mph N/A   Overcast
3:53 AM 25.0 °F 13.1 °F 21.0 °F 85% 30.01 in 8.0 mi North 13.8 mph - N/A   Overcast
4:53 AM 24.1 °F 11.0 °F 19.9 °F 84% 30.01 in 10.0 mi North 16.1 mph - N/A   Overcast
5:53 AM 24.1 °F 10.6 °F 19.9 °F 84% 30.05 in 10.0 mi North 17.3 mph - N/A   Overcast
6:53 AM 24.1 °F 10.1 °F 19.0 °F 81% 30.06 in 10.0 mi North 18.4 mph 25.3 mph N/A   Overcast
7:19 AM 24.1 °F 11.0 °F 19.0 °F 81% 29.99 in 10.0 mi NNE 16.1 mph - N/A   Overcast
7:32 AM 24.1 °F 11.0 °F 19.0 °F 81% 29.99 in 10.0 mi North 16.1 mph - N/A   Overcast
7:45 AM 24.1 °F 12.5 °F 19.0 °F 81% 30.00 in 10.0 mi North 12.7 mph - N/A   Overcast
7:53 AM 24.1 °F 13.1 °F 19.0 °F 81% 30.09 in 10.0 mi North 11.5 mph - N/A   Overcast
8:53 AM 24.1 °F 11.0 °F 19.0 °F 81% 30.12 in 5.0 mi North 16.1 mph 21.9 mph 0.00 in Snow Light Snow
9:12 AM 23.0 °F 9.2 °F 18.0 °F 81% 30.04 in 2.5 mi NNE 17.3 mph - 0.00 in Snow Light Snow
9:31 AM 23.0 °F 9.6 °F 18.0 °F 81% 30.04 in 1.8 mi NNE 16.1 mph - 0.00 in Snow Light Snow
9:53 AM 23.0 °F 11.1 °F 19.0 °F 85% 30.13 in 0.8 mi NNE 12.7 mph - 0.00 in Snow Light Snow
10:41 AM 23.0 °F 9.2 °F 19.0 °F 85% 30.04 in 1.0 mi North 17.3 mph - 0.02 in Snow Light Snow
10:53 AM 23.0 °F 8.7 °F 19.0 °F 85% 30.13 in 1.0 mi North 18.4 mph 25.3 mph 0.02 in Snow Light Snow
11:53 AM 24.1 °F 12.0 °F 19.0 °F 81% 30.14 in 1.0 mi North 13.8 mph - 0.02 in Snow Light Snow
12:16 PM 23.0 °F 10.1 °F 19.0 °F 85% 30.03 in 0.5 mi North 15.0 mph - 0.01 in Fog , Snow Snow
12:23 PM 23.0 °F 11.1 °F 19.0 °F 85% 30.02 in 0.5 mi North 12.7 mph - 0.01 in Fog , Snow Snow
12:53 PM 24.1 °F 13.1 °F 19.9 °F 84% 30.12 in 0.5 mi North 11.5 mph - 0.03 in Fog , Snow Snow
1:40 PM 24.1 °F 13.7 °F 19.9 °F 84% 30.01 in 0.8 mi North 10.4 mph - 0.03 in Snow Light Snow
1:53 PM 23.0 °F 13.1 °F 19.9 °F 88% 30.11 in 1.0 mi North 9.2 mph - 0.04 in Snow Light Snow
2:09 PM 23.0 °F 11.1 °F 19.0 °F 85% 30.00 in 0.8 mi North 12.7 mph - 0.00 in Snow Light Snow
2:53 PM 23.0 °F 11.1 °F 19.0 °F 85% 30.10 in 0.5 mi North 12.7 mph - 0.02 in Fog , Snow Snow
3:05 PM 23.0 °F 9.6 °F 19.0 °F 85% 30.00 in 0.8 mi North 16.1 mph - 0.01 in Snow Light Snow
3:11 PM 23.0 °F 8.7 °F 18.0 °F 81% 30.00 in 1.0 mi North 18.4 mph 24.2 mph 0.01 in Snow Light Snow
3:21 PM 23.0 °F 9.6 °F 18.0 °F 81% 30.01 in 2.0 mi North 16.1 mph - 0.01 in Snow Light Snow
3:34 PM 23.0 °F 10.1 °F 18.0 °F 81% 30.01 in 3.0 mi North 15.0 mph - 0.01 in Snow Light Snow
3:42 PM 23.0 °F 10.6 °F 18.0 °F 81% 30.01 in 2.0 mi North 13.8 mph - 0.01 in Snow Light Snow
3:51 PM 23.0 °F 12.4 °F 19.4 °F 86% 30.02 in 1.8 mi North 10.4 mph - 0.01 in Snow Light Snow
3:53 PM 23.0 °F 12.4 °F 19.0 °F 85% 30.12 in 1.8 mi North 10.4 mph - 0.01 in Snow Light Snow
4:18 PM 21.9 °F 9.8 °F 18.0 °F 85% 30.03 in 0.8 mi North 12.7 mph - 0.00 in Snow Light Snow
4:31 PM 21.9 °F 10.4 °F 18.0 °F 85% 30.03 in 1.5 mi North 11.5 mph - 0.01 in Snow Light Snow
4:41 PM 21.9 °F 10.4 °F 18.0 °F 85% 30.04 in 2.5 mi North 11.5 mph - 0.01 in Snow Light Snow
4:53 PM 21.9 °F 9.8 °F 18.0 °F 85% 30.14 in 2.0 mi North 12.7 mph - 0.01 in Snow Light Snow
4:58 PM 21.9 °F 9.8 °F 18.0 °F 85% 30.03 in 1.2 mi North 12.7 mph - 0.00 in Snow Light Snow
5:11 PM 21.9 °F 9.8 °F 18.0 °F 85% 30.04 in 0.8 mi NNE 12.7 mph - 0.00 in Snow Light Snow
5:21 PM 21.0 °F 8.1 °F 17.1 °F 85% 30.04 in 1.0 mi NNE 13.8 mph - 0.01 in Snow Light Snow
5:34 PM 21.0 °F 8.1 °F 17.1 °F 85% 30.03 in 2.0 mi North 13.8 mph - 0.01 in Snow Light Snow
5:40 PM 21.0 °F 8.1 °F 17.1 °F 85% 30.04 in 3.0 mi North 13.8 mph - 0.01 in Snow Light Snow
5:53 PM 21.0 °F 10.6 °F 17.1 °F 85% 30.15 in 4.0 mi North 9.2 mph - 0.01 in Snow Light Snow
6:03 PM 21.0 °F 9.9 °F 16.0 °F 81% 30.05 in 5.0 mi North 10.4 mph - 0.00 in Snow Light Snow
6:53 PM 19.9 °F 10.1 °F 16.0 °F 85% 30.17 in 8.0 mi North 8.1 mph - 0.00 in Snow Light Snow
7:53 PM 19.9 °F 7.9 °F 14.0 °F 78% 30.19 in 4.0 mi North 11.5 mph - 0.00 in Snow Light Snow
8:02 PM 19.9 °F 9.3 °F 15.1 °F 81% 30.09 in 1.8 mi North 9.2 mph - 0.00 in Snow Light Snow
8:15 PM 19.9 °F 10.1 °F 15.1 °F 81% 30.10 in 1.2 mi North 8.1 mph - 0.01 in Snow Light Snow
8:23 PM 19.0 °F 11.1 °F 16.0 °F 88% 30.10 in 2.0 mi NNW 5.8 mph - 0.01 in Snow Light Snow
8:48 PM 19.4 °F 14.3 °F 15.8 °F 86% 30.11 in 1.5 mi NNW 3.5 mph - 0.02 in Snow Light Snow
8:53 PM 19.0 °F 12.3 °F 16.0 °F 88% 30.22 in 1.5 mi NNW 4.6 mph - 0.02 in Snow Light Snow
9:02 PM 19.0 °F 13.9 °F 16.0 °F 88% 30.11 in 1.0 mi NW 3.5 mph - 0.00 in Snow Light Snow
9:25 PM 19.0 °F 12.3 °F 17.1 °F 92% 30.12 in 1.5 mi NW 4.6 mph - 0.01 in Snow Light Snow
9:37 PM 19.0 °F 11.1 °F 16.0 °F 88% 30.13 in 2.0 mi NNW 5.8 mph - 0.01 in Snow Light Snow
9:53 PM 19.0 °F 12.3 °F 16.0 °F 88% 30.25 in 3.0 mi NNW 4.6 mph - 0.01 in Snow Light Snow
10:00 PM 19.0 °F 12.3 °F 16.0 °F 88% 30.13 in 1.8 mi NNW 4.6 mph - 0.00 in Snow Light Snow
10:30 PM 19.0 °F 10.0 °F 16.0 °F 88% 30.14 in 2.0 mi NW 6.9 mph - 0.02 in Snow Light Snow
10:53 PM 19.0 °F 9.0 °F 15.1 °F 85% 30.27 in 2.0 mi NW 8.1 mph - 0.02 in Snow Light Snow
11:43 PM 18.0 °F 8.7 °F 15.1 °F 88% 30.15 in 3.0 mi WNW 6.9 mph - 0.01 in Snow Light Snow
11:53 PM 18.0 °F 9.8 °F 15.1 °F 88% 30.27 in 3.0 mi WNW 5.8 mph - 0.01 in Snow Light Snow